When you browse on this site, cookies collect data to enhance your experience and personalize the content and advertising you see.
Visit our Privacy Policy to learn more. By continuing to use the site, you agree to this use of cookies and data.
  • In Latvia
  • List of Countries
  • For 7 days
  • Water Temperature
  • Satellite Maps
  • Weather Map
  • Weather Widgets
  • user-avatar
    Login

    Hourly Weather Sysoev

    Today, 19 June, Wednesday

    Time Temperature Precipitation Wind Pressure Humidity
    00:00 +21°C° 0 mm 1 mps 755 mmHg 61%
    01:00 +21°C° 0 mm 1 mps 755 mmHg 62%
    02:00 +20°C° 0 mm 1 mps 755 mmHg 63%
    03:00 +20°C° 0 mm 1 mps 755 mmHg 65%
    04:00 +21°C° 0 mm 1 mps 755 mmHg 62%
    05:00 +23°C° 0 mm 1 mps 755 mmHg 59%
    06:00 +24°C° 0 mm 1 mps 756 mmHg 57%
    07:00 +25°C° 0 mm 2 mps 756 mmHg 52%
    08:00 +27°C° 0 mm 2 mps 756 mmHg 48%
    09:00 +28°C° 0 mm 2 mps 756 mmHg 43%
    10:00 +29°C° 0 mm 2 mps 755 mmHg 41%
    11:00 +30°C° 0 mm 2 mps 755 mmHg 38%
    12:00 +31°C° 0 mm 2 mps 755 mmHg 35%
    13:00 +31°C° 0 mm 3 mps 755 mmHg 37%
    14:00 +32°C° 0 mm 4 mps 755 mmHg 38%
    15:00 +32°C° 0 mm 4 mps 755 mmHg 40%
    16:00 +30°C° 0 mm 4 mps 755 mmHg 42%
    17:00 +30°C° 0 mm 4 mps 755 mmHg 45%
    18:00 +29°C° 0 mm 4 mps 755 mmHg 47%
    19:00 +28°C° 0 mm 4 mps 755 mmHg 52%
    20:00 +26°C° 0 mm 3 mps 755 mmHg 56%
    21:00 +25°C° 0 mm 3 mps 755 mmHg 60%
    22:00 +24°C° 0 mm 3 mps 755 mmHg 61%
    23:00 +22°C° 0 mm 3 mps 756 mmHg 62%

    Tomorrow, 20 June, Thursday

    Time Temperature Precipitation Wind Pressure Humidity
    00:00 +21°C° 0 mm 2 mps 756 mmHg 63%
    01:00 +21°C° 0 mm 2 mps 756 mmHg 66%
    02:00 +20°C° 0 mm 2 mps 756 mmHg 69%
    03:00 +20°C° 0 mm 2 mps 756 mmHg 73%
    04:00 +20°C° 0 mm 3 mps 756 mmHg 71%
    05:00 +21°C° 0 mm 3 mps 757 mmHg 69%
    06:00 +22°C° 0 mm 3 mps 757 mmHg 67%
    07:00 +25°C° 0 mm 3 mps 757 mmHg 61%
    08:00 +26°C° 0 mm 3 mps 757 mmHg 55%
    09:00 +28°C° 0 mm 3 mps 757 mmHg 49%
    10:00 +29°C° 0 mm 3 mps 757 mmHg 45%
    11:00 +30°C° 0 mm 4 mps 757 mmHg 40%
    12:00 +32°C° 0 mm 4 mps 757 mmHg 36%
    13:00 +32°C° 0 mm 5 mps 757 mmHg 34%
    14:00 +33°C° 0 mm 5 mps 757 mmHg 32%
    15:00 +33°C° 0 mm 5 mps 757 mmHg 30%
    16:00 +32°C° 0 mm 5 mps 757 mmHg 33%
    17:00 +32°C° 0 mm 5 mps 757 mmHg 35%
    18:00 +30°C° 0 mm 5 mps 757 mmHg 38%
    19:00 +28°C° 0 mm 5 mps 757 mmHg 44%
    20:00 +27°C° 0 mm 5 mps 758 mmHg 50%
    21:00 +25°C° 0 mm 4 mps 758 mmHg 56%
    22:00 +23°C° 0 mm 4 mps 758 mmHg 59%
    23:00 +23°C° 0 mm 4 mps 758 mmHg 61%

    Day after tomorrow, 21 June, Friday

    Time Temperature Precipitation Wind Pressure Humidity
    00:00 +22°C° 0 mm 4 mps 758 mmHg 64%
    01:00 +21°C° 0 mm 4 mps 758 mmHg 66%
    02:00 +21°C° 0 mm 3 mps 759 mmHg 68%
    03:00 +20°C° 0 mm 3 mps 759 mmHg 70%
    04:00 +21°C° 0 mm 4 mps 759 mmHg 69%
    05:00 +22°C° 0 mm 4 mps 759 mmHg 68%
    06:00 +23°C° 0 mm 5 mps 760 mmHg 66%
    07:00 +25°C° 0 mm 5 mps 760 mmHg 59%
    08:00 +27°C° 0 mm 5 mps 760 mmHg 53%
    09:00 +29°C° 0 mm 5 mps 760 mmHg 46%
    10:00 +30°C° 0 mm 5 mps 760 mmHg 42%
    11:00 +32°C° 0 mm 5 mps 760 mmHg 37%
    12:00 +33°C° 0 mm 5 mps 760 mmHg 33%
    13:00 +33°C° 0 mm 5 mps 760 mmHg 31%
    14:00 +34°C° 0 mm 5 mps 759 mmHg 29%
    15:00 +34°C° 0 mm 5 mps 759 mmHg 27%
    16:00 +33°C° 0 mm 5 mps 759 mmHg 29%
    17:00 +33°C° 0 mm 5 mps 759 mmHg 30%
    18:00 +32°C° 0 mm 5 mps 759 mmHg 31%
    19:00 +29°C° 0 mm 4 mps 760 mmHg 36%
    20:00 +28°C° 0 mm 4 mps 760 mmHg 42%
    21:00 +26°C° 0 mm 3 mps 760 mmHg 48%
    22:00 +25°C° 0 mm 3 mps 760 mmHg 50%
    23:00 +24°C° 0 mm 3 mps 760 mmHg 53%

    22 June, Saturday

    Time Temperature Precipitation Wind Pressure Humidity
    00:00 +24°C° 0 mm 3 mps 761 mmHg 55%
    01:00 +22°C° 0 mm 3 mps 761 mmHg 58%
    02:00 +22°C° 0 mm 3 mps 761 mmHg 60%
    03:00 +21°C° 0 mm 3 mps 761 mmHg 63%
    04:00 +22°C° 0 mm 3 mps 761 mmHg 62%
    05:00 +24°C° 0 mm 3 mps 761 mmHg 60%
    06:00 +24°C° 0 mm 3 mps 761 mmHg 59%
    07:00 +26°C° 0 mm 4 mps 761 mmHg 52%
    08:00 +28°C° 0 mm 4 mps 761 mmHg 46%
    09:00 +30°C° 0 mm 4 mps 762 mmHg 40%
    10:00 +32°C° 0 mm 4 mps 761 mmHg 36%
    11:00 +32°C° 0 mm 4 mps 761 mmHg 32%
    12:00 +33°C° 0 mm 3 mps 761 mmHg 29%
    13:00 +34°C° 0 mm 4 mps 761 mmHg 27%
    14:00 +34°C° 0 mm 4 mps 761 mmHg 26%
    15:00 +35°C° 0 mm 4 mps 761 mmHg 25%
    16:00 +34°C° 0 mm 4 mps 761 mmHg 26%
    17:00 +33°C° 0 mm 4 mps 760 mmHg 27%
    18:00 +33°C° 0 mm 5 mps 760 mmHg 29%
    19:00 +30°C° 0 mm 4 mps 761 mmHg 33%
    20:00 +28°C° 0 mm 4 mps 761 mmHg 37%
    21:00 +26°C° 0 mm 3 mps 761 mmHg 41%
    22:00 +25°C° 0 mm 3 mps 761 mmHg 44%
    23:00 +25°C° 0 mm 3 mps 761 mmHg 47%

    23 June, Sunday

    Time Temperature Precipitation Wind Pressure Humidity
    00:00 +24°C° 0 mm 3 mps 761 mmHg 50%
    01:00 +22°C° 0 mm 3 mps 761 mmHg 53%
    02:00 +22°C° 0 mm 3 mps 761 mmHg 56%
    03:00 +21°C° 0 mm 3 mps 761 mmHg 59%
    04:00 +22°C° 0 mm 3 mps 761 mmHg 58%
    05:00 +24°C° 0 mm 3 mps 762 mmHg 57%
    06:00 +25°C° 0 mm 3 mps 762 mmHg 56%
    07:00 +27°C° 0 mm 3 mps 762 mmHg 50%
    08:00 +29°C° 0 mm 4 mps 762 mmHg 43%
    09:00 +32°C° 0 mm 4 mps 762 mmHg 36%
    10:00 +33°C° 0 mm 4 mps 761 mmHg 33%
    11:00 +33°C° 0 mm 4 mps 761 mmHg 31%
    12:00 +34°C° 0 mm 5 mps 761 mmHg 28%
    13:00 +35°C° 0 mm 4 mps 761 mmHg 27%
    14:00 +35°C° 0 mm 4 mps 760 mmHg 26%
    15:00 +35°C° 0 mm 4 mps 760 mmHg 25%
    16:00 +35°C° 0 mm 4 mps 760 mmHg 27%
    17:00 +34°C° 0 mm 4 mps 760 mmHg 28%
    18:00 +34°C° 0 mm 4 mps 759 mmHg 30%
    19:00 +32°C° 0 mm 4 mps 760 mmHg 34%
    20:00 +29°C° 0 mm 5 mps 760 mmHg 38%
    21:00 +27°C° 0 mm 5 mps 760 mmHg 41%
    22:00 +27°C° 0 mm 5 mps 760 mmHg 43%
    23:00 +26°C° 0 mm 5 mps 760 mmHg 45%

    24 June, Monday

    Time Temperature Precipitation Wind Pressure Humidity
    00:00 +25°C° 0 mm 4 mps 760 mmHg 47%
    01:00 +25°C° 0 mm 4 mps 760 mmHg 48%
    02:00 +23°C° 0 mm 4 mps 760 mmHg 49%
    03:00 +23°C° 0 mm 4 mps 760 mmHg 51%
    04:00 +25°C° 0 mm 5 mps 760 mmHg 49%
    05:00 +26°C° 0 mm 5 mps 760 mmHg 48%
    06:00 +27°C° 0 mm 6 mps 760 mmHg 46%
    07:00 +29°C° 0 mm 6 mps 759 mmHg 43%
    08:00 +32°C° 0 mm 6 mps 759 mmHg 39%
    09:00 +34°C° 0 mm 7 mps 759 mmHg 35%
    10:00 +35°C° 0 mm 6 mps 759 mmHg 32%
    11:00 +38°C° 0 mm 6 mps 759 mmHg 29%
    12:00 +39°C° 0 mm 6 mps 759 mmHg 26%
    13:00 +40°C° 0 mm 5 mps 758 mmHg 23%
    14:00 +41°C° 0 mm 4 mps 758 mmHg 20%
    15:00 +42°C° 0 mm 3 mps 758 mmHg 16%
    16:00 +40°C° 0 mm 3 mps 757 mmHg 18%
    17:00 +40°C° 0 mm 4 mps 757 mmHg 19%
    18:00 +40°C° 0 mm 4 mps 757 mmHg 21%
    19:00 +37°C° 0 mm 5 mps 757 mmHg 25%
    20:00 +35°C° 0 mm 6 mps 757 mmHg 29%
    21:00 +33°C° 0 mm 7 mps 757 mmHg 33%
    22:00 +32°C° 0 mm 6 mps 757 mmHg 36%
    23:00 +30°C° 0 mm 6 mps 757 mmHg 38%
    Show more